Location: ??????????
(54.8537°N, 38.8755°E)
Time: 22:12:27
(UTC+00:00)

Tiros 1 - Pass Details

Date: 19 September 2024
Orbit: 623 x 654 km, 48.4° (Epoch: 09 October)

Event Time Altitude Azimuth Distance (km) Brightness Sun altitude
Rises 16:26:55 0° 271° (W) 2,908 12.4 -8.9°
Reaches altitude 10° 16:29:40 10° 256° (WSW) 2,002 10.7 -9.3°
Maximum altitude 16:33:07 21° 207° (SSW) 1,410 9.0 -9.8°
Drops below altitude 10° 16:36:35 10° 158° (SSE) 2,010 9.3 -10.2°
Enters shadow 16:37:45 - 150° (SSE) 2,374 9.6 -10.4°
Sets 16:39:21 0° 143° (SE) 2,922 - -10.6°
